Location: *
(46.1866°S, 178.5290°W)
Time: 01:44:34
(UTC+00:00)

Cosmos 2369 Rocket - Pass Details

Date: 19 May 2021
Orbit: 827 x 854 km, 71.0° (Epoch: 12 June)

Event Time Altitude Azimuth Distance (km) Brightness Sun altitude
Rises 07:48:04 0° 212° (SSW) 3,414 5.8 -34.3°
Reaches altitude 10° 07:50:39 10° 219° (SW) 2,470 5.1 -34.8°
Enters shadow 07:55:02 39° 264° (W) 1,246 3.4 -35.5°
